GFSNE_con_lsi_057.txt.gz
Lid_Strength_Index
10 12 13 13 13 14 14 14 15 18 18 15 16 13 13 14 14 14 14 13 13 12 12 11 11 10 9 9 8 8 7 7 7 7 6 6 5 4
12 13 14 14 14 14 15 15 15 15 17 16 15 14 14 14 14 15 14 14 13 12 12 12 11 10 9 9 8 8 7 7 7 7 6 5 4 3
14 15 15 15 16 16 16 16 16 16 16 17 15 14 15 15 15 15 14 14 14 12 12 11 11 10 9 9 9 8 8 8 7 7 5 4 3 3
15 16 16 16 16 16 16 17 16 16 16 17 16 16 16 14 14 15 15 14 14 13 11 11 10 10 10 9 9 8 8 8 8 6 5 4 3 3
15 16 17 17 17 17 17 17 16 18 17 16 16 16 15 15 15 15 14 13 13 12 11 11 10 10 10 9 8 8 8 8 8 6 5 4 3 3
16 16 17 17 17 17 17 17 17 17 17 17 16 16 16 15 15 16 15 14 14 13 11 11 11 11 9 8 8 8 8 8 7 6 5 4 4 4
17 17 17 16 16 16 17 17 17 17 16 16 17 16 16 16 16 15 15 14 13 12 12 13 13 13 11 9 9 8 7 7 6 5 5 5 5 5
18 18 17 16 15 15 15 15 16 15 15 16 16 16 16 15 15 15 15 15 16 12 14 14 13 13 12 11 8 8 7 6 6 5 5 5 6 6
18 17 17 16 16 16 15 15 14 13 13 15 16 15 15 14 14 14 14 14 14 13 14 16 13 13 11 11 8 7 6 6 6 6 6 6 6 6
17 17 16 17 17 17 16 15 14 14 14 14 14 14 14 13 12 13 13 13 13 13 13 16 13 14 12 11 8 7 7 7 7 7 7 7 7 7
16 16 15 16 15 14 15 16 16 15 13 12 11 11 10 10 10 12 14 15 15 14 11 13 14 14 13 13 11 8 7 8 8 8 7 8 7 7
16 16 15 15 13 12 15 16 17 16 15 15 14 13 12 12 10 11 12 14 13 13 12 13 14 13 16 13 12 11 11 10 9 8 8 8 7 9
17 16 15 13 13 12 12 14 14 13 13 13 14 13 13 13 13 12 11 11 12 12 10 12 14 13 13 14 14 12 13 12 12 11 9 8 8 8
16 15 14 13 11 11 11 11 11 12 12 12 12 12 12 12 12 11 11 11 10 11 10 10 13 13 14 16 17 15 14 13 12 12 11 10 9 9
13 13 12 12 11 11 10 10 11 11 11 12 12 11 12 13 13 13 12 12 12 12 11 11 12 13 14 16 18 17 16 15 13 12 12 12 12 12
12 12 12 12 11 11 11 11 12 11 11 11 12 13 13 14 14 13 14 14 15 15 12 11 13 14 16 16 17 18 17 18 14 13 12 13 12 11
12 12 12 13 13 12 12 12 11 12 13 13 13 14 14 14 13 13 14 16 17 17 17 15 13 14 15 16 19 18 18 17 14 13 14 14 13 12
13 13 13 13 13 13 13 13 13 14 14 15 15 15 15 15 15 15 16 18 18 18 18 17 17 18 19 18 15 16 17 16 14 13 13 14 15 12
14 13 13 13 12 13 14 14 15 16 17 17 16 17 16 16 17 18 18 18 20 20 19 18 19 20 23 23 19 13 15 15 14 14 13 14 15 13
13 14 13 14 14 15 16 17 17 18 18 18 18 18 19 19 20 20 20 22 22 22 22 21 19 18 20 21 21 17 12 14 13 14 14 14 13 10
16 16 16 17 18 18 18 19 18 18 18 19 20 22 22 22 23 22 21 21 22 24 24 21 17 16 17 18 21 19 15 11 11 14 14 14 16 15
18 18 19 19 19 19 20 20 20 22 22 22 21 22 22 22 23 24 24 23 24 22 21 18 17 18 19 19 20 19 17 16 13 11 10 11 14 17
20 20 21 21 21 21 21 21 21 20 21 22 22 22 24 25 24 22 23 24 24 24 23 22 20 19 20 19 19 19 19 18 17 16 15 11 10 10

GFSNE_con_lsi_060.txt.gz
Lid_Strength_Index
10 11 13 14 15 15 15 17 19 21 20 19 18 16 16 15 16 16 17 14 12 12 11 11 10 10 9 8 8 8 7 7 7 7 7 7 7 6
10 12 14 15 15 16 16 17 17 18 20 18 18 16 15 15 15 16 16 13 13 12 11 11 10 10 9 9 8 8 8 7 7 7 8 7 6 5
13 14 15 15 16 16 17 17 17 17 19 19 17 17 16 17 16 16 16 15 15 12 12 11 10 10 9 9 9 9 8 7 8 8 8 7 6 6
14 15 16 15 16 17 17 18 18 17 17 19 18 18 18 16 16 17 16 15 16 13 12 11 10 10 9 9 9 8 8 9 9 9 8 7 6 5
14 15 15 16 17 17 17 17 17 17 17 17 19 18 17 17 17 17 16 16 15 13 11 10 10 10 9 9 8 8 9 10 10 9 8 7 6 6
15 15 16 16 17 17 17 17 18 18 18 18 18 18 17 16 16 17 17 16 16 15 13 12 11 10 9 9 9 10 10 9 9 8 8 8 7 7
16 16 16 16 15 16 17 17 17 18 18 18 18 17 17 17 17 16 17 16 16 15 14 15 15 14 13 11 11 11 9 8 8 8 9 8 8 7
17 17 16 16 15 14 15 15 16 17 18 17 17 17 17 16 16 16 16 17 18 15 16 16 14 14 14 13 10 9 9 8 8 9 8 8 7 7
17 17 16 16 15 15 14 14 14 13 14 14 16 16 16 15 15 16 16 16 16 14 15 16 14 15 14 12 10 9 8 8 9 8 8 8 7 7
16 16 16 16 16 16 16 16 16 15 13 14 15 15 15 14 14 14 15 17 16 14 14 17 15 15 14 13 10 9 8 9 8 8 8 8 8 8
16 16 15 15 14 14 16 16 16 16 14 12 12 12 11 11 12 14 18 19 16 15 13 14 15 16 16 14 13 10 10 9 9 9 9 9 9 8
16 16 15 15 13 13 16 16 17 16 16 15 14 13 11 12 11 12 16 15 14 16 15 15 16 16 18 16 14 13 13 11 10 10 10 10 9 11
17 16 15 13 12 12 14 15 15 15 15 15 15 15 14 14 14 14 13 14 15 14 13 14 16 16 17 17 15 14 14 14 14 14 12 11 10 10
16 16 15 12 12 11 12 13 12 12 15 15 15 15 15 14 13 14 13 13 13 13 13 13 16 16 18 19 19 16 16 15 15 16 15 12 11 11
15 14 13 12 11 11 11 11 12 12 14 14 14 13 12 13 14 14 14 14 14 14 13 14 16 16 17 19 19 19 18 18 16 16 16 14 15 13
13 13 13 12 12 11 13 11 12 12 12 12 13 14 15 15 16 15 18 19 22 20 14 14 15 16 19 18 18 20 18 20 17 16 15 15 13 12
13 13 13 13 13 14 14 13 12 14 14 15 16 16 15 15 15 15 18 22 24 23 22 19 16 16 17 18 22 20 19 17 17 16 15 15 13 12
13 14 15 15 14 14 15 16 16 15 16 16 17 16 16 17 17 18 19 24 25 24 23 22 21 22 23 22 16 19 18 17 16 15 15 15 15 13
16 16 17 17 18 16 16 17 18 18 19 18 18 18 18 18 20 19 20 22 25 25 24 23 24 26 31 29 21 14 18 17 16 16 14 14 15 14
15 16 15 16 18 18 20 21 21 21 20 19 19 20 21 22 23 24 23 27 27 27 28 26 24 24 25 25 25 19 14 16 15 16 15 15 13 10
24 23 24 24 24 24 24 23 21 20 21 21 22 23 24 25 26 25 24 24 26 30 29 26 20 17 19 24 27 24 18 13 13 16 15 16 16 15
26 26 27 28 28 27 26 25 25 26 25 24 24 24 26 25 26 27 28 28 29 27 24 21 21 23 24 22 23 22 20 17 15 13 12 12 15 17
25 26 27 27 27 26 27 28 29 28 28 28 28 28 27 28 28 25 28 29 29 29 27 26 24 22 23 22 23 21 21 20 19 19 16 12 11 11

GFSNE_con_lsi_063.txt.gz
Lid_Strength_Index
9 10 10 11 12 13 14 15 15 20 19 18 18 16 15 16 15 15 17 14 12 12 11 11 10 9 9 9 8 7 7 7 7 7 7 7 7 6
9 10 10 10 11 12 13 14 16 16 18 18 18 16 16 16 15 16 16 14 13 12 11 10 10 10 9 9 8 8 8 8 7 7 7 7 7 6
9 10 10 10 12 14 15 16 16 16 18 18 17 16 16 17 17 16 16 16 15 12 12 11 10 10 9 9 9 9 8 8 8 8 8 8 7 6
10 11 11 14 14 15 15 16 15 16 17 18 18 18 18 17 17 17 17 16 16 13 11 11 10 10 10 9 9 9 9 9 8 9 9 7 7 6
11 12 12 15 15 16 15 16 16 16 17 18 19 18 18 18 18 17 16 16 15 13 11 11 10 10 10 9 9 9 9 9 9 9 8 8 8 8
11 12 13 15 15 16 16 16 17 17 17 18 18 18 18 18 18 17 17 16 16 15 13 13 12 11 10 9 9 10 10 9 9 8 8 8 9 8
14 14 14 14 14 14 15 16 16 17 17 18 18 18 18 18 18 17 17 16 16 15 15 15 15 15 14 11 11 10 9 8 8 9 8 9 9 8
15 16 15 15 14 14 14 14 15 17 17 17 17 17 17 16 17 16 16 17 18 15 17 17 15 16 14 14 10 9 8 8 9 8 9 9 9 9
16 16 16 15 15 15 13 13 14 13 14 15 16 16 16 16 16 16 16 16 17 16 17 17 15 15 14 12 9 9 9 9 8 9 9 9 9 9
15 15 15 16 15 15 15 15 15 15 14 14 15 15 15 15 14 14 15 16 17 16 15 19 16 16 14 13 10 9 9 10 10 10 10 9 10 9
16 15 15 15 14 13 16 16 16 15 13 13 13 12 12 12 13 14 18 17 19 17 14 16 16 16 16 16 14 12 12 12 11 11 11 11 10 10
16 16 15 14 13 13 15 15 16 16 15 15 14 12 12 12 10 12 14 16 15 16 15 15 17 18 20 18 16 16 16 14 13 12 12 12 11 13
16 16 15 13 12 12 13 14 14 14 14 15 15 15 14 14 14 14 14 14 17 15 14 16 18 19 22 20 18 17 17 16 16 16 14 13 12 12
16 15 14 12 12 11 12 12 12 13 15 15 16 16 15 15 14 13 13 13 13 14 14 15 19 20 24 25 22 18 17 16 17 17 16 14 13 13
15 14 13 11 11 10 10 11 12 13 15 16 16 15 14 13 13 14 14 15 15 15 14 15 18 18 20 24 22 20 19 18 16 17 16 16 17 15
13 13 12 12 11 12 13 11 11 12 13 14 14 16 15 16 16 16 17 17 19 19 15 15 17 17 22 21 19 20 19 21 17 17 16 16 15 14
13 13 13 13 13 13 13 13 14 16 14 16 16 17 16 16 16 17 18 20 20 20 20 20 17 17 18 19 27 21 20 19 17 17 17 17 16 14
12 13 13 13 13 13 14 17 17 16 17 17 17 17 16 16 18 18 18 20 21 21 23 23 22 23 25 24 17 22 20 18 18 18 17 17 16 14
14 14 14 14 15 15 17 18 19 19 19 18 17 18 18 17 18 18 18 20 23 23 23 23 25 28 33 31 22 15 20 19 18 19 16 16 17 15
15 15 16 16 16 19 20 21 21 20 21 21 19 19 19 20 21 20 21 25 25 25 28 27 25 25 27 27 26 21 15 18 18 17 17 17 15 11
23 21 22 23 25 23 23 23 23 22 22 22 22 22 22 23 25 24 23 23 25 28 27 25 20 17 19 24 28 25 21 15 14 16 16 17 17 16
30 28 29 29 28 26 25 24 24 23 21 22 23 24 27 26 27 29 27 27 27 24 22 20 20 23 25 23 25 23 21 19 16 14 13 13 16 18
29 31 30 30 30 30 30 28 27 25 29 31 31 31 32 31 31 27 28 27 26 25 24 25 21 22 24 23 25 24 24 22 20 20 18 13 12 11

GFSNE_con_lsi_069.txt.gz
Lid_Strength_Index
6 6 7 7 7 8 9 9 10 10 15 16 15 14 14 14 14 13 13 12 11 10 10 10 10 10 10 9 9 8 8 7 7 8 7 7 7 7
6 6 7 7 7 8 9 10 9 9 10 13 15 15 14 14 14 14 14 13 12 11 10 10 10 10 10 9 9 8 8 8 8 8 7 7 7 7
6 7 7 7 8 8 9 10 10 10 10 12 16 15 15 15 15 14 14 14 14 12 11 11 10 11 11 10 9 8 9 8 8 8 8 8 7 7
7 8 8 8 9 8 10 10 11 11 11 11 17 16 16 15 15 15 15 14 15 13 12 11 11 11 10 10 9 9 9 9 9 9 8 8 8 7
7 8 8 9 9 9 10 10 11 12 12 14 17 16 17 15 16 15 16 16 16 14 12 12 12 11 10 10 9 9 9 9 9 10 9 9 8 7
8 8 8 9 9 10 11 12 13 14 15 14 17 17 17 16 16 17 18 17 17 16 14 14 13 12 11 10 10 10 10 10 10 10 9 9 8 8
11 11 10 10 11 10 12 13 14 14 15 15 16 18 18 18 18 17 17 17 17 16 16 16 15 14 13 12 12 11 11 10 10 9 9 9 9 9
12 12 12 13 12 10 10 11 12 14 14 15 17 17 18 17 17 17 17 17 18 15 16 16 14 15 14 13 12 11 10 10 10 10 10 10 10 11
13 13 14 14 14 13 11 11 12 11 12 14 16 16 17 16 16 16 16 16 17 16 16 17 15 15 14 13 11 11 10 11 11 11 11 12 12 12
13 13 14 14 14 14 14 14 14 14 14 14 14 15 15 14 14 14 15 15 16 15 15 17 16 15 14 14 12 12 12 13 13 13 13 12 12 12
14 14 14 14 13 12 14 15 14 14 12 12 12 12 11 11 12 14 16 16 17 17 15 15 17 17 17 16 15 13 14 14 14 14 13 13 13 12
15 15 14 14 12 12 14 14 15 14 14 14 13 12 12 12 11 13 14 16 17 17 16 16 18 18 20 18 17 18 18 16 16 15 15 14 13 14
15 15 14 13 11 11 12 14 13 13 12 14 14 14 13 13 13 13 13 14 16 17 15 16 19 19 20 20 18 19 19 19 19 18 16 15 13 13
14 14 13 12 11 11 13 11 11 13 13 15 15 15 15 15 15 14 14 14 14 14 14 15 18 19 21 23 22 19 19 19 19 19 18 16 14 13
14 13 12 11 11 11 11 10 13 14 14 15 15 16 16 16 15 16 16 17 16 16 16 16 17 18 19 22 24 22 20 20 18 18 18 17 17 16
12 12 12 12 10 11 12 11 12 12 13 14 14 15 15 16 17 17 19 19 20 20 17 17 17 18 22 22 22 25 21 23 20 19 17 17 16 15
13 13 13 13 13 13 13 13 13 13 13 14 15 17 17 18 18 19 19 20 21 21 21 20 19 19 20 21 27 22 22 21 19 18 18 18 16 15
12 13 14 13 14 15 15 14 15 17 18 18 19 18 19 18 19 19 19 21 21 21 20 21 22 25 26 25 19 24 22 21 19 18 17 19 18 15
13 14 14 15 15 16 17 18 20 21 20 19 20 20 19 20 21 20 20 20 21 20 21 22 23 27 34 31 23 16 22 20 19 19 18 17 17 16
16 17 17 18 20 21 23 24 24 23 23 23 23 24 25 24 22 20 20 23 22 23 25 26 26 27 28 28 29 21 16 20 21 19 17 16 15 12
22 24 25 26 27 27 28 27 27 26 28 28 28 27 25 24 23 22 21 22 25 28 29 27 22 19 22 25 28 26 21 16 14 17 17 18 18 17
25 25 28 30 31 31 30 31 29 30 30 30 29 27 26 25 24 27 28 28 30 26 25 23 23 26 26 24 27 26 22 19 16 14 13 13 17 20
27 27 29 30 35 35 34 33 33 32 34 33 34 35 35 33 35 30 32 31 29 28 27 26 25 24 24 24 27 26 25 23 20 20 19 13 11 10

GFSNE_con_lsi_072.txt.gz
Lid_Strength_Index
5 5 6 5 6 6 7 8 8 10 9 13 14 13 12 12 12 11 11 10 8 8 8 8 8 8 9 9 9 9 8 8 7 7 7 7 6 6
5 6 6 5 6 6 7 8 8 8 9 10 13 13 13 13 12 12 12 11 9 9 9 9 9 9 9 9 9 9 8 8 7 8 7 6 6 6
5 6 6 6 6 6 7 8 8 9 10 8 13 14 14 14 14 13 13 13 12 10 9 10 9 9 9 10 9 9 9 8 7 7 7 7 7 7
6 6 6 7 7 6 7 8 9 9 9 10 13 16 15 14 14 15 14 13 14 11 10 10 9 10 10 10 10 10 9 8 8 8 8 8 8 7
6 7 7 8 8 8 8 9 9 9 10 10 11 15 16 15 15 15 15 15 14 12 10 10 11 10 10 10 10 9 9 9 9 9 9 9 8 8
7 7 8 8 9 9 9 10 10 11 12 12 15 16 16 16 15 16 17 16 16 14 13 12 11 11 10 10 10 10 10 10 10 10 9 9 9 8
9 10 10 10 10 9 10 11 12 12 14 13 14 16 17 17 17 16 17 17 17 16 16 15 14 14 13 11 12 12 11 10 10 9 9 9 9 10
10 11 11 12 11 10 9 9 11 12 13 13 14 15 17 16 16 16 17 18 19 15 16 16 15 15 14 14 12 10 10 10 10 11 11 11 11 11
11 11 12 12 12 12 11 10 10 10 11 13 14 15 16 16 16 17 16 16 16 16 15 16 15 15 14 13 11 10 11 11 12 12 12 12 12 12
12 12 12 13 13 13 13 13 13 13 13 13 13 14 14 14 14 14 14 15 16 15 15 17 16 16 14 14 12 12 12 13 13 13 13 13 13 12
13 13 13 13 13 11 13 14 14 14 12 11 11 11 11 11 12 14 15 15 17 17 15 16 17 17 17 17 16 12 13 14 14 14 14 13 13 13
13 13 13 13 12 11 13 13 14 14 13 13 13 11 11 11 11 13 14 15 16 17 15 16 18 18 20 19 18 18 18 16 15 15 15 14 14 16
13 13 12 10 11 10 12 13 13 12 12 13 13 13 13 13 13 13 13 14 16 17 15 17 19 19 19 20 18 18 19 19 19 19 17 16 14 14
13 13 13 11 10 10 12 10 10 12 13 14 14 15 14 15 14 14 14 15 14 14 14 15 18 19 21 23 21 19 19 19 19 20 19 17 16 15
12 12 11 10 10 11 10 10 13 13 14 15 15 15 16 15 15 17 17 17 17 16 16 16 17 18 19 21 23 23 21 21 20 20 19 18 18 18
11 11 10 10 10 11 12 12 13 13 13 13 14 15 15 16 17 17 18 18 20 20 17 17 17 18 22 23 23 26 22 24 21 20 19 18 18 17
11 11 12 12 13 13 13 13 13 14 14 15 15 16 17 17 17 17 18 20 22 22 21 20 20 20 21 21 27 24 23 23 21 20 20 20 18 18
13 14 13 13 14 14 14 16 18 17 17 17 18 18 18 18 19 20 20 22 21 21 21 22 22 22 24 24 20 25 24 23 20 19 19 22 21 18
14 15 15 16 17 17 18 19 19 19 20 19 19 19 19 20 23 22 21 20 22 22 22 22 23 25 33 30 25 18 24 22 20 22 20 20 20 18
17 18 19 19 20 20 20 21 21 21 22 21 22 23 23 24 24 23 22 24 24 24 25 25 25 26 27 28 30 23 16 21 22 21 20 18 17 14
21 22 23 23 24 24 24 24 24 24 25 27 28 28 29 28 27 26 24 25 26 28 29 26 22 21 24 27 29 27 21 16 16 18 18 20 20 18
23 24 25 25 25 25 26 27 27 27 28 29 31 30 30 28 29 30 30 31 32 30 28 25 25 26 27 25 28 26 23 20 18 16 15 15 21 22
26 26 28 29 30 29 28 28 29 30 31 32 34 36 36 33 35 30 34 34 34 32 30 29 26 25 26 25 28 27 27 25 22 22 21 14 12 11

GFSNE_con_lsi_075.txt.gz
Lid_Strength_Index
4 4 4 4 5 5 5 6 7 8 7 6 11 11 11 10 10 10 10 9 7 6 5 4 5 5 6 7 7 7 7 7 8 7 7 6 6 6
3 4 4 4 4 5 5 6 6 7 9 6 9 10 11 11 11 11 11 10 9 7 6 5 6 7 7 7 7 7 8 8 7 7 6 6 6 6
4 5 5 5 5 5 6 6 7 7 9 7 9 11 13 13 12 12 11 11 11 9 8 6 7 8 8 7 8 8 9 8 7 7 7 7 6 7
5 5 5 5 6 5 5 6 7 7 8 9 8 13 13 13 13 14 13 12 12 11 9 7 8 8 8 8 9 9 9 8 9 8 8 8 7 7
6 6 6 6 7 7 7 7 8 8 8 9 9 15 14 14 15 14 14 14 13 12 10 9 9 9 9 9 9 10 9 9 9 9 10 9 8 8
6 6 6 7 7 7 8 8 8 9 9 9 10 14 15 15 14 15 16 15 15 13 12 11 10 10 9 9 10 10 10 10 10 10 10 9 9 10
8 8 8 8 9 8 9 8 9 10 10 11 11 15 16 16 16 15 15 15 15 14 13 13 13 12 11 10 11 11 10 10 10 9 10 11 11 12
10 10 10 11 10 9 8 8 8 10 11 11 11 13 14 15 15 15 15 17 18 14 15 15 12 13 12 11 11 10 10 9 9 11 12 13 13 12
10 10 10 10 11 10 9 9 9 8 8 11 12 13 14 14 14 15 15 15 15 15 13 15 13 14 12 12 10 10 10 11 12 13 14 14 13 13
10 10 11 10 10 11 11 12 12 12 12 11 12 12 12 12 12 13 13 14 14 14 13 15 14 14 13 13 10 10 11 12 13 14 15 14 14 13
11 11 11 11 11 10 11 12 12 12 10 10 10 10 10 10 11 12 14 14 15 15 14 15 16 16 16 16 14 11 12 14 15 15 15 14 14 13
12 12 12 11 10 10 11 11 12 12 11 11 11 10 10 10 10 11 12 13 15 15 14 16 16 16 18 17 16 16 16 15 16 15 15 15 14 14
12 12 12 10 9 9 10 11 11 11 10 11 12 12 12 12 12 12 12 13 14 15 14 15 16 16 16 18 17 17 17 17 17 17 17 16 15 14
12 12 11 9 9 9 10 9 9 11 11 12 13 13 13 13 14 14 14 14 13 13 12 14 15 15 16 17 17 17 17 17 17 18 18 17 16 16
11 11 10 8 8 9 8 9 11 11 11 12 13 14 14 14 15 16 16 16 17 16 16 15 14 15 15 16 17 18 18 18 18 18 18 18 18 18
10 9 9 8 8 9 10 11 11 11 12 13 13 13 14 14 15 16 17 17 18 18 17 16 16 16 17 18 18 19 19 19 19 19 19 18 17 17
9 9 10 11 11 11 12 12 12 12 12 13 13 14 15 15 16 16 16 17 17 18 19 18 18 18 18 18 19 19 19 19 19 19 19 19 17 17
10 11 12 12 12 12 14 15 15 15 15 15 15 15 15 16 16 17 17 17 17 18 19 19 19 18 18 20 18 19 20 20 19 19 18 19 18 16
12 13 13 13 14 15 15 16 17 17 17 16 16 16 16 17 17 17 17 18 19 19 20 19 19 20 21 21 20 17 19 19 18 18 18 18 18 16
14 15 16 16 17 17 17 18 18 18 18 18 18 18 18 18 18 18 18 19 19 20 21 21 20 21 21 21 21 19 16 17 18 18 18 16 15 13
17 19 18 19 19 20 20 20 20 20 20 20 20 20 20 19 21 20 20 22 22 22 21 21 20 20 21 21 21 20 18 16 16 17 17 17 18 17
19 20 21 21 21 21 21 21 21 21 22 22 22 22 22 20 21 22 22 22 22 22 22 21 22 21 21 20 22 22 20 18 17 16 14 14 17 19
21 22 23 24 24 24 23 22 22 23 23 23 24 25 25 25 26 23 24 25 25 24 24 23 22 21 21 21 23 22 22 21 19 19 17 14 13 12